Regional Weather Roundup
Issued by NWS

Home | Current Version | Previous Version | Text Only | Print | Product List | Glossary Off
Versions: 1 2 3 4 5 6 7 8 9 10 11 12 13 14 15 16 17 18 19 20 21 22 23 24 25 26 27

000
ASUS45 KTFX 250010
RWRMT
MONTANA REGIONAL WEATHER ROUNDUP
NATIONAL WEATHER SERVICE GREAT FALLS MT
600 PM MDT TUE APR 24 2018

NOTE: "FAIR" INDICATES FEW OR NO CLOUDS BELOW 12000 FEET WITH NO
SIGNIFICANT WEATHER AND/OR OBSTRUCTIONS TO VISIBILITY.

MTZ001>007-043-250100-
WEST OF THE DIVIDE

CITY           SKY/WX    TMP DP  RH WIND       PRES   REMARKS
KALISPELL      FAIR      64  16  15 S12       30.25F
MISSOULA       FAIR      66  23  19 SE9       30.25F
BUTTE          FAIR      55  27  34 S6        30.35F
MULLAN PASS    FAIR      56   8  14 VRB3      30.30F
ANACONDA         N/A     61  12  15 E6        30.32F
DEER LODGE       N/A     61  10  13 S9        30.32F
HAMILTON         N/A     66  19  16 MISG      30.27F
PLAINS           N/A     69  30  23 CALM      30.21F
RONAN            N/A     64  27  24 SE5       30.26F
$$

MTZ008-052>055-250100-
SOUTHWEST MONTANA

CITY           SKY/WX    TMP DP  RH WIND       PRES   REMARKS
BOZEMAN        FAIR      54  31  41 N5        30.37F
DILLON         FAIR      52  24  33 W6        30.35F
ENNIS          SUNNY     52  25  35 S12       30.40F
W YELLOWSTONE  FAIR      46  14  27 NE6       30.36F
THREE FORKS      N/A     54  22  28 SW7       30.32F
TWIN BRIDGES     N/A     56  22  26 S2        30.30F
$$

MTZ009-010-012-014-046-048-049-054-250100-
EAST SLOPES AND CENTRAL MONTANA

CITY           SKY/WX    TMP DP  RH WIND       PRES   REMARKS
CUT BANK       FAIR      67   8  10 SW15G21   30.18F
GREAT FALLS    FAIR      64  19  17 SW12G23   30.24F
HELENA         FAIR      62  24  23 E20       30.30F
CHOTEAU          N/A     66  14  13 S16G25    30.23F
WHITE SULPHUR    N/A     52  18  25 SE17      30.34F
$$

MTZ011-013-016-021-045-047-050-051-250100-
NORTH CENTRAL MONTANA

CITY           SKY/WX    TMP DP  RH WIND       PRES   REMARKS
HAVRE          FAIR      66  16  14 SW15      30.22F
LEWISTOWN      FAIR      59  20  22 SW9       30.30F
N BAR RANCH    FAIR      54  21  28 SW16G24   30.34F
CHINOOK          N/A     70  25  18 SW5       30.22F
$$

MTZ017>020-022>027-061-062-250100-
NORTHEAST MONTANA

CITY           SKY/WX    TMP DP  RH WIND       PRES   REMARKS
GLASGOW        FAIR      65  25  22 SW12      30.29F
GLENDIVE       FAIR      57  33  40 SW14      30.36F
JORDAN           N/A     58  31  35 SW10      30.33F
MALTA          SUNNY     63  30  29 S17       30.24F
SIDNEY         FAIR      61  26  26 S8        30.33F
WOLF POINT     FAIR      64  22  20 SW13      30.31F
PLENTYWOOD       N/A     63  23  22 SW7       30.28F
SCOBEY           N/A     62  20  20 SW14      30.26F VSB 0
$$

MTZ028>42-056>058-250100-
SOUTHCENTRAL AND SOUTHEAST MONTANA

CITY           SKY/WX    TMP DP  RH WIND       PRES   REMARKS
BAKER          FAIR      50  27  40 SW6       30.41F
BILLINGS       FAIR      54  27  35 S8        30.38F
LIVINGSTON     FAIR      55  30  38 N3        30.35F
MILES CITY     FAIR      55  29  36 SW10      30.38F
BIG TIMBER     SUNNY     50  32  50 SE9       30.38F
EKALAKA          N/A     47  27  46 SW1       30.35F
FORSYTH          N/A     55  34  44 S7        30.38F
$$

REGIONAL REPORTS...DAKOTAS

CITY           SKY/WX    TMP DP  RH WIND       PRES   REMARKS
WILLISTON      FAIR      62  22  21 W9        30.32F
MINOT          FAIR      60  17  18 NW6       30.32F
DICKINSON      FAIR      56  21  25 NW8       30.35F
BEACH          FAIR      54  30  40 SW12      30.41F
CROSBY         FAIR      61  25  25 SW12      30.30F
TIOGA          FAIR      57  23  26 W10       30.33F
WATFORD CITY   FAIR      59  27  29 W8G16     30.33F
BISMARCK       FAIR      58  23  26 NW5       30.36F
GRAND FORKS    FAIR      51  26  37 N15G23    30.33F
FARGO          FAIR      52  29  41 N21       30.33S
BUFFALO SD       N/A     52  18  26 CALM      30.34F
RAPID CITY     FAIR      50  24  36 NE14G23   30.41S
$$

REGIONAL REPORTS...WYOMING/IDAHO/WASHINGTON

CITY           SKY/WX    TMP DP  RH WIND       PRES   REMARKS
GILLETTE       FAIR      48  24  39 N7        30.41F
SHERIDAN       FAIR      52  24  33 CALM      30.40F
BUFFALO WY     FAIR      48  22  35 CALM      30.41F
CODY           FAIR      51  20  29 SE9       30.40F
YELLOWSTONE LA   N/A     40   7  25 VRB3      30.44R
IDAHO FALLS    FAIR      59  31  34 NE9       30.33S
SALMON         FAIR      63  18  17 NE5       30.29F
BOISE          FAIR      68  28  22 SE8       30.22F
SPOKANE        FAIR      69  29  22 E6        30.20F
$$

REGIONAL REPORTS...ALBERTA

CITY           SKY/WX    TMP DP  RH WIND       PRES   REMARKS
CALGARY        CLOUDY    64   3   9 W5        30.08F
CARDSTON         N/A     66  12  12 W10G17      N/A
EDMONTON       SUNNY     66  25  20 NW7       29.99F
FORT MCMURRAY  PTSUNNY   63  25  23 NW21G30   29.86R
HIGH LEVEL     PTSUNNY   55  23  28 NW12G23   29.92R
LETHBRIDGE     PTSUNNY   70  18  13 W18       30.12S
LLOYDMINSTER   PTSUNNY   68  23  18 W15       30.00F
MEDICINE HAT   PTSUNNY   70  18  13 S20G28    30.10F
PINCHER CREEK  SUNNY     64  19  17 W25G31    30.15F
$$

REGIONAL REPORTS...SASKATCHEWAN

CITY           SKY/WX    TMP DP  RH WIND       PRES   REMARKS
ESTEVAN        MOSUNNY   61  23  23 SW14      30.27F
MOOSE JAW        N/A     66  18  15 SW17G24     N/A
PRINCE ALBERT  PTSUNNY   66  28  24 SW14G25   30.03F
REGINA         CLOUDY    64  23  20 SW18G26   30.20F
ROCKGLEN         N/A     59  21  23 SW16        N/A
SASKATOON      PTSUNNY   68  25  19 SW21      30.08F
SWIFT CURRENT  SUNNY     64  21  19 SW22G28   30.16F
$$




USA.gov is the U.S. government's official web portal to all federal, state and local government web resources and services.